www.pogodaiklimat.ru

Погода и климат >> Архив погоды >> Австралия >> Tibooburra Airport


ПОГОДА в Tibooburra Airport

  • Прогноз погоды в Tibooburra Airport
  • Монитор погоды в Tibooburra Airport
  • Климат города

АРХИВ ПОГОДЫ в Tibooburra Airport

Время (UTC), дата Ветер
(напр.,м/с)
 
Видим.   Явления Облачность Т
(С)
Тd
(С)
f
(%)
Тe
(С)
Тes
(С)
Комфортность P
(гПа)
Po
(гПа)
Тmin
(С)
Tmax
(С)
R
(мм)
R24
(мм)
S
(см)
04 23.04 В 3 н/о н/о +26.9 +12.2 40 +28 +28 жарко 1018.2 997.6
05 23.04 СЗ 1 н/о н/о +27.4 +11.8 38 +29 +29 жарко 1017.8 997.2
06 23.04 В 3 н/о н/о +28.2 +11.3 35 +29 +29 жарко 1017.5 996.9
07 23.04 ЮВ 3 н/о н/о +26.7 +11.6 39 +28 +28 жарко 1017.8 997.2
08 23.04 Ю 4 н/о в посл. час дождь {туман} н/о +22.2 +19.0 82 +28 +28 душно 1018.4 997.8
09 23.04 В 3 н/о н/о +21.8 +18.8 83 +27 +27 душно 1018.9 998.3
10 23.04 В 3 н/о н/о +22.6 +17.5 73 +28 +28 душно 1019.3 998.7
11 23.04 штиль 0 н/о {туман} н/о +21.7 +18.7 83 +27 +27 душно 1019.8 999.2
12 23.04 ЮВ 2 н/о н/о +21.0 +19.1 89 +26 +26 душно 1019.6 999.0
13 23.04 ЮВ 2 н/о н/о +20.1 +18.2 89 +24 +24 комфорт 1019.3 998.7
14 23.04 В 4 н/о н/о +19.3 +17.8 91 +21 +21 комфорт 1019.0 998.4 +28.8
15 23.04 СВ 3 н/о н/о +19.3 +16.5 84 +21 +21 комфорт 1018.9 998.3
16 23.04 СВ 3 н/о н/о +18.7 +16.3 86 +20 +20 1018.4 997.8
17 23.04 В 3 н/о н/о +17.4 +16.3 93 +18 +18 1018.1 997.5
18 23.04 В 2 н/о н/о +16.7 +16.1 96 +17 +17 1017.7 997.1
19 23.04 СВ 3 н/о н/о +16.6 +16.1 97 +16 +16 1017.7 997.1
20 23.04 СВ 3 н/о н/о +16.0 +15.8 99 +15 +15 1017.9 997.3
21 23.04 СВ 3 н/о н/о +16.2 +16.0 99 +16 +16 1018.2 997.6
22 23.04 В 2 н/о н/о +17.5 +16.9 96 +18 +18 1018.3 997.7
23 23.04 СВ 4 н/о н/о +20.4 +17.8 85 +24 +24 комфорт 1018.7 998.1
00 24.04 СВ 4 н/о н/о +23.8 +15.3 59 +27 +27 жарко 1018.6 998.0
01 24.04 СВ 5 н/о н/о +26.0 +13.5 46 +28 +28 жарко 1018.0 997.4
02 24.04 С 4 н/о н/о +27.9 +12.3 38 +29 +29 жарко 1016.9 996.3 +15.7
03 24.04 СЗ 3 н/о н/о +29.1 +11.6 34 +30 +30 жарко 1015.7 995.2
04 24.04 С 3 н/о н/о +29.4 +10.0 30 +29 +29 жарко 1014.8 994.3
05 24.04 СЗ 4 н/о н/о +29.6 +9.2 28 +29 +29 жарко 1014.2 993.7
06 24.04 СЗ 3 н/о н/о +29.7 +8.7 27 +29 +29 жарко 1013.8 993.3
07 24.04 З 3 н/о н/о +29.2 +8.8 28 +29 +29 жарко 1013.6 993.1
08 24.04 СЗ 2 н/о н/о +28.7 +8.4 28 +28 +28 жарко 1013.7 993.2
09 24.04 СЗ 2 н/о н/о +26.8 +9.2 33 +27 +27 жарко 1014.1 993.6
10 24.04 СВ 3 н/о н/о +25.4 +10.1 38 +26 +26 жарко 1014.2 993.7
11 24.04 СВ 2 н/о н/о +24.9 +11.5 43 +26 +26 жарко 1014.3 993.8
12 24.04 Ю 5 н/о н/о +24.0 +13.5 52 +26 +26 жарко 1014.3 993.8
13 24.04 Ю 3 н/о н/о +23.2 +14.7 59 +27 +27 душно 1013.8 993.3
14 24.04 штиль 0 н/о н/о +22.7 +14.8 61 +26 +26 жарко 1013.2 992.7 +30.9
15 24.04 ЮЗ 3 н/о н/о +22.2 +15.8 67 +26 +26 душно 1013.0 992.5
16 24.04 Ю 4 н/о н/о +21.6 +17.2 76 +26 +26 душно 1012.3 991.8
17 24.04 ЮЗ 9 н/о н/о +20.6 +19.4 93 +24 +24 комфорт 1013.1 992.6
18 24.04 ЮЗ 11 н/о н/о +18.9 +18.7 99 +19 +19 1014.2 993.7
19 24.04 Ю 5 н/о н/о +18.3 +18.3 100 +19 +19 1013.2 992.7
20 24.04 Ю 8 н/о туман местами н/о +18.1 +18.1 100 +17 +17 1014.1 993.6
21 24.04 Ю 5 н/о н/о +18.3 +18.3 100 +18 +18 1013.9 993.4
22 24.04 ЮЗ 5 н/о н/о +18.3 +18.3 100 +18 +18 1014.7 994.2
23 24.04 З 4 н/о в посл. час дождь {туман} н/о +18.9 +18.9 100 +21 +21 комфорт 1014.7 994.2
00 25.04 СЗ 6 н/о н/о +19.5 +19.5 100 +22 +22 комфорт 1014.5 994.0
01 25.04 З 6 н/о н/о +20.9 +20.7 99 +26 +26 душно 1014.3 993.8
02 25.04 З 7 н/о {туман} н/о +22.2 +19.9 87 +28 +28 душно 1013.7 993.2 +18.2
03 25.04 ЮЗ 7 н/о н/о +22.7 +19.3 81 +29 +29 очень
душно
1013.0 992.5
04 25.04 ЮЗ 5 н/о н/о +22.7 +19.5 82 +29 +29 очень
душно
1012.7 992.2
05 25.04 ЮЗ 7 н/о {туман} н/о +23.1 +17.8 72 +29 +29 очень
душно
1012.2 991.7
06 25.04 ЮЗ 6 н/о н/о +23.6 +17.6 69 +28 +28 душно 1012.1 991.6
07 25.04 ЮЗ 6 н/о н/о +23.3 +15.1 60 +27 +27 душно 1012.1 991.6
08 25.04 ЮЗ 6 н/о н/о +21.8 +15.6 68 +25 +25 комфорт 1012.3 991.8
09 25.04 ЮЗ 4 н/о н/о +20.5 +17.5 83 +24 +24 комфорт 1012.9 992.4
10 25.04 ЮЗ 4 н/о н/о +19.3 +17.1 87 +21 +21 комфорт 1013.7 993.2
11 25.04 ЮЗ 5 н/о н/о +18.8 +16.9 89 +20 +20 1014.2 993.7
12 25.04 З 4 н/о н/о +18.0 +16.7 92 +18 +18 1014.2 993.7
13 25.04 ЮЗ 5 н/о н/о +17.5 +15.8 90 +17 +17 1014.2 993.7
14 25.04 ЮЗ 6 н/о н/о +17.1 +14.2 83 +16 +16 1014.0 993.5 +24.1
15 25.04 З 4 н/о н/о +16.4 +13.1 81 +16 +16 1014.5 994.0
16 25.04 З 5 н/о н/о +16.0 +13.3 84 +15 +15 1014.5 994.0
17 25.04 З 7 н/о н/о +16.0 +12.6 80 +15 +15 1014.5 994.0
18 25.04 ЮЗ 7 н/о н/о +15.5 +13.0 85 +14 +14 1014.5 994.0
19 25.04 ЮЗ 7 н/о н/о +14.9 +12.8 87 +13 +13 1014.8 994.3
20 25.04 ЮЗ 8 н/о н/о +14.6 +12.5 87 +12 +12 1015.5 995.0
21 25.04 ЮЗ 6 н/о н/о +13.7 +12.6 93 +12 +12 1016.3 995.8
22 25.04 ЮЗ 5 н/о н/о +14.7 +12.6 87 +13 +13 1016.7 996.2
23 25.04 ЮЗ 10 н/о н/о +15.5 +11.1 75 +13 +13 1017.7 997.1
00 26.04 ЮЗ 11 н/о н/о +16.7 +9.9 64 +15 +15 1017.9 997.3
01 26.04 ЮЗ 12 н/о н/о +17.5 +8.6 56 +16 +16 1018.0 997.4
02 26.04 ЮЗ 11 н/о н/о +17.5 +8.6 56 +16 +16 1017.9 997.3 +13.7
03 26.04 ЮЗ 11 н/о н/о +18.1 +6.6 47 +17 +17 1017.2 996.6
04 26.04 ЮЗ 11 н/о н/о +18.3 +4.1 39 +17 +17 1017.1 996.5
05 26.04 ЮЗ 11 н/о н/о +18.2 +3.3 37 +17 +17 1017.0 996.4
06 26.04 Ю 11 н/о н/о +17.8 +3.3 38 +16 +16 1017.5 996.9
07 26.04 Ю 11 н/о н/о +16.7 +2.0 37 +15 +15 1018.2 997.6
08 26.04 Ю 9 н/о н/о +15.4 +1.5 39 +14 +14 1018.5 997.9
09 26.04 Ю 6 н/о н/о +14.6 +2.5 44 +13 +13 1019.5 998.9
10 26.04 Ю 6 н/о н/о +13.9 +2.2 45 +12 +12 1020.6 1000.0
11 26.04 Ю 6 н/о н/о +13.5 +2.1 46 +12 +12 1021.0 1000.4
12 26.04 Ю 5 н/о н/о +12.7 +2.6 50 +11 +11 1021.2 1000.6
13 26.04 Ю 4 н/о н/о +11.8 +2.8 54 +10 +10 1021.6 1001.0
14 26.04 Ю 4 н/о н/о +10.9 +3.2 59 +9 +9 1022.2 1001.5 +19.5
15 26.04 ЮЗ 3 н/о н/о +10.0 +4.0 66 +8 +8 1022.6 1001.9
16 26.04 ЮЗ 4 н/о н/о +9.5 +4.7 72 +7 +7 1022.7 1002.0
17 26.04 Ю 5 н/о н/о +9.6 +4.2 69 +7 +7 1022.7 1002.0
18 26.04 Ю 4 н/о н/о +9.0 +4.8 75 +6 +6 1022.9 1002.2
19 26.04 Ю 5 н/о н/о +9.2 +4.6 73 +6 +6 1023.0 1002.3
20 26.04 Ю 5 н/о н/о +8.8 +4.4 74 +5 +5 1023.7 1003.0
21 26.04 Ю 6 н/о н/о +8.9 +4.3 73 +5 +5 1023.8 1003.1
22 26.04 Ю 6 н/о н/о +9.8 +4.2 68 +6 +6 1024.5 1003.8
23 26.04 Ю 7 н/о н/о +11.5 +3.3 57 +9 +9 1025.0 1004.3
00 27.04 Ю 8 н/о н/о +12.7 +2.8 51 +10 +10 1025.7 1005.0
01 27.04 Ю 7 н/о н/о +14.1 +2.4 45 +12 +12 1025.4 1004.7
02 27.04 Ю 9 н/о н/о +15.3 +0.7 37 +13 +13 1024.8 1004.1 +8.7
03 27.04 Ю 9 н/о н/о +15.9 -0.3 33 +14 +14 1024.2 1003.5
04 27.04 Ю 9 н/о н/о +16.4 +0.1 33 +15 +15 1023.1 1002.4
05 27.04 Ю 8 н/о н/о +17.0 +0.6 33 +16 +16 1022.8 1002.1
06 27.04 Ю 8 н/о н/о +17.0 +0.2 32 +16 +16 1023.0 1002.3
07 27.04 Ю 8 н/о н/о +16.6 +0.7 34 +15 +15 1023.0 1002.3
08 27.04 Ю 7 н/о н/о +15.4 +1.5 39 +14 +14 1023.7 1003.0
09 27.04 Ю 6 н/о н/о +14.8 +2.0 42 +13 +13 1024.5 1003.8
10 27.04 Ю 6 н/о н/о +14.2 +2.5 45 +13 +13 1024.9 1004.2
11 27.04 Ю 6 н/о н/о +13.6 +2.8 48 +12 +12 1025.2 1004.5
12 27.04 Ю 5 н/о н/о +13.1 +3.2 51 +11 +11 1025.6 1004.9
13 27.04 Ю 4 н/о н/о +12.2 +3.7 56 +10 +10 1025.5 1004.8
14 27.04 Ю 4 н/о н/о +11.7 +3.7 58 +10 +10 1025.2 1004.5 +17.7
15 27.04 Ю 4 н/о н/о +10.7 +4.0 63 +9 +9 1024.9 1004.2
16 27.04 Ю 4 н/о н/о +10.7 +4.0 63 +8 +8 1024.7 1004.0
17 27.04 Ю 4 н/о н/о +10.1 +4.3 67 +8 +8 1024.6 1003.9
18 27.04 Ю 4 н/о н/о +9.5 +4.7 72 +7 +7 1024.6 1003.9
19 27.04 Ю 4 н/о н/о +8.9 +5.3 78 +6 +6 1025.1 1004.4
20 27.04 Ю 3 н/о н/о +8.9 +5.8 81 +6 +6 1025.4 1004.7
21 27.04 Ю 3 н/о н/о +10.8 +6.0 72 +9 +9 1025.8 1005.1
22 27.04 Ю 3 н/о н/о +11.6 +5.9 68 +10 +10 1026.5 1005.8
23 27.04 Ю 5 н/о н/о +13.6 +4.7 55 +12 +12 1027.2 1006.4
00 28.04 Ю 7 н/о н/о +15.0 +3.8 47 +13 +13 1027.3 1006.5
01 28.04 ЮВ 8 н/о н/о +15.5 +3.9 46 +14 +14 1026.6 1005.9
02 28.04 Ю 7 н/о н/о +16.7 +4.1 43 +16 +16 1025.9 1005.2 +8.3
03 28.04 Ю 7 н/о н/о +18.1 +3.9 39 +17 +17 1024.7 1004.0
04 28.04 Ю 7 н/о н/о +17.3 +4.3 42 +16 +16 1024.1 1003.4
05 28.04 Ю 7 н/о н/о +18.0 +4.2 40 +17 +17 1023.7 1003.0
06 28.04 Ю 7 н/о н/о +17.8 +4.0 40 +17 +17 1023.4 1002.7
07 28.04 Ю 6 н/о н/о +17.6 +3.9 40 +17 +17 1023.4 1002.7
08 28.04 Ю 7 н/о н/о +16.7 +4.1 43 +16 +16 1023.5 1002.8
09 28.04 Ю 5 н/о н/о +15.9 +4.9 48 +15 +15 1024.0 1003.3
10 28.04 Ю 5 н/о н/о +15.2 +5.4 52 +14 +14 1024.1 1003.4
11 28.04 ЮВ 5 н/о н/о +14.5 +5.3 54 +13 +13 1024.1 1003.4
12 28.04 Ю 4 н/о н/о +13.8 +5.4 57 +13 +13 1024.6 1003.9
13 28.04 Ю 3 н/о н/о +12.7 +5.4 61 +11 +11 1024.5 1003.8
14 28.04 Ю 4 н/о н/о +11.8 +5.4 65 +10 +10 1024.1 1003.4 +19.0
15 28.04 Ю 4 н/о н/о +10.7 +5.9 72 +9 +9 1023.9 1003.2
16 28.04 Ю 3 н/о н/о +10.0 +6.3 78 +8 +8 1023.9 1003.2
17 28.04 Ю 4 н/о н/о +10.2 +6.7 79 +8 +8 1023.8 1003.1
18 28.04 Ю 3 н/о н/о +9.6 +7.0 84 +7 +7 1023.5 1002.8
19 28.04 Ю 3 н/о н/о +9.4 +7.5 88 +7 +7 1023.5 1002.8
20 28.04 Ю 4 н/о н/о +9.3 +7.4 88 +7 +7 1023.4 1002.7
21 28.04 Ю 2 н/о н/о +9.0 +7.3 89 +7 +7 1024.1 1003.4
22 28.04 ЮВ 3 н/о н/о +10.8 +7.9 82 +9 +9 1025.0 1004.3
23 28.04 ЮВ 5 н/о н/о +14.0 +7.5 65 +12 +12 1025.1 1004.4
00 29.04 ЮВ 6 н/о н/о +15.8 +6.8 55 +15 +15 1025.5 1004.8
01 29.04 В 6 н/о н/о +17.3 +7.4 52 +17 +17 1024.9 1004.2
02 29.04 ЮВ 5 н/о н/о +18.1 +6.0 45 +18 +18 1024.2 1003.5 +9.0
03 29.04 ЮВ 4 н/о н/о +18.7 +6.5 45 +19 +19 1023.1 1002.4
04 29.04 ЮВ 6 н/о н/о +20.2 +6.2 40 +21 +21 комфорт 1021.9 1001.2
05 29.04 ЮВ 6 н/о н/о +19.9 +5.5 39 +20 +20 1021.6 1001.0
06 29.04 ЮВ 6 н/о н/о +20.9 +5.3 36 +22 +22 комфорт 1021.1 1000.5
07 29.04 ЮВ 5 н/о н/о +20.0 +5.3 38 +20 +20 1021.3 1000.7
08 29.04 ЮВ 4 н/о н/о +19.0 +6.2 43 +19 +19 1021.7 1001.1
09 29.04 Ю 3 н/о н/о +17.6 +6.8 49 +18 +18 1022.4 1001.7
10 29.04 Ю 3 н/о н/о +16.6 +6.7 52 +16 +16 1022.6 1001.9
11 29.04 Ю 4 н/о н/о +15.6 +7.1 57 +15 +15 1022.6 1001.9
12 29.04 Ю 3 н/о н/о +14.6 +6.9 60 +14 +14 1022.7 1002.0
13 29.04 Ю 3 н/о н/о +14.6 +7.2 61 +14 +14 1022.6 1001.9
14 29.04 Ю 3 н/о н/о +14.0 +7.3 64 +13 +13 1022.2 1001.5 +21.7
15 29.04 ЮВ 6 н/о н/о +14.4 +7.5 63 +13 +13 1021.7 1001.1
16 29.04 ЮВ 6 н/о н/о +13.7 +7.5 66 +12 +12 1021.3 1000.7
17 29.04 ЮВ 5 н/о н/о +13.3 +7.5 68 +11 +11 1021.0 1000.4
18 29.04 ЮВ 5 н/о н/о +12.8 +7.7 71 +11 +11 1020.8 1000.2
19 29.04 ЮВ 4 н/о н/о +12.0 +7.9 76 +10 +10 1021.1 1000.5
20 29.04 ЮВ 5 н/о н/о +11.9 +8.2 78 +10 +10 1021.6 1001.0
21 29.04 ЮВ 4 н/о н/о +11.8 +8.3 79 +10 +10 1022.2 1001.5
22 29.04 ЮВ 5 н/о н/о +13.1 +8.0 71 +11 +11 1022.8 1002.1
23 29.04 В 7 н/о н/о +14.8 +7.6 62 +13 +13 1022.8 1002.1
00 30.04 В 7 н/о н/о +16.6 +7.5 55 +15 +15 1022.5 1001.8
01 30.04 В 6 н/о н/о +18.3 +7.4 49 +18 +18 1021.6 1001.0
02 30.04 В 5 н/о н/о +20.1 +7.5 44 +21 +21 комфорт 1020.7 1000.1 +11.8

 

Местоположение метеостанции Tibooburra Airport (Новый Южный Уэльс, Австралия): широта -29.45 долгота 142.05 высота над уровнем моря 177 м.

В архиве по умолчанию представлена погода в Tibooburra Airport за последнюю неделю. Архивные данные за месяц целиком и за предыдущие месяцы, начиная с января 2011 года, Вы можете получить, выбрав интересующий диапазон дат из раскрывающегося списка и нажав кнопку "Ввод!".

Внимание! Время в таблицах - всемирное. Для получения местного времени необходимо прибавить поправку, которая в Tibooburra Airport равна 10 ч.

Смотрите также архив погоды в соседних городах и на ближайших метеорологических станциях:

Погода в White Cliffs Aws (Новый Южный Уэльс, Австралия) (184 км)
Погода в Fowlers Gap Aws (Новый Южный Уэльс, Австралия) (184 км)
Погода в Ballera Gas Field (Квинсленд, Австралия) (227 км)
Погода в Moomba Airport (Южная Австралия, Австралия) (235 км)
Погода в Thargomindah Airport (Квинсленд, Австралия) (237 км)
Погода в Wilcannia Aerodrome (Новый Южный Уэльс, Австралия) (263 км)
Погода в Broken Hill Airport (Новый Южный Уэльс, Австралия) (289 км)
Погода в Leigh Creek Airport (Южная Австралия, Австралия) (372 км)
Погода в Bourke Airport Aws (Новый Южный Уэльс, Австралия) (382 км)
Погода в Marree Aero (Южная Австралия, Австралия) (387 км)

Пояснения к столбцам:

Ветер - указаны скорость ветра в м/с - средняя за 10 мин, порывы в срок и между сроками (в фигурных скобках) и направление, откуда дует ветер: С - северный, СВ - северо-восточный, В - восточный, ЮВ - юго-восточный, Ю - южный, ЮЗ - юго-западный, З - западный, СЗ - северо-западный.
Видимость - горизонтальная дальность видимости в метрах или километрах. При видимости от 1 до 10 км при отсутствии осадков обычно наблюдается дымка, при ухудшении видимости до 1 км и менее - туман. В сухую погоду видимость может ухудшаться дымом, пылью или мглою.
Явления - указаны атмосферные явления, наблюдавшиеся в срок или в последний час перед сроком; фигурными скобками обозначены явления, наблюдавшиеся между сроками (за 1-3 часа до срока); квадратными скобками обозначены град или гололедные отложения с указанием их диаметра в мм.
Облачность - указаны через наклонную черту общая и нижняя облачность в баллах и высота нижней границы облаков в метрах; квадратными скобками обозначены формы облаков: Ci - перистые, Cs - перисто-слоистые, Cc - перисто-кучевые, Ac - высококучевые, As - высокослоистые, Sc - слоисто-кучевые, Ns - слоисто-дождевые, Cu - кучевые, Cb - кучево-дождевые. Подробнее классификацию облаков см. в Атласе облаков (PDF).
T - Температура воздуха - температура, измеренная на высоте 2 м над землей.
Td - Температура точки росы - температура, при понижении до которой содержащийся в воздухе водяной пар достигнет насыщения.
f - Относительная влажность воздуха - влажноcть воздуха, измеренная на высоте 2 м над землей.
Te - Эффективная температура - температура, которую ощущает одетый по сезону человек в тени. Характеристика душности погоды. При расчете учитывается влияние влажности воздуха и скорости ветра на теплоощущения человека.
Tes - Эффективная температура на солнце - температура, которую ощущает человек, с поправкой на солнечный нагрев. Характеристика знойности погоды. Зависит от высоты солнца над горизонтом, облачности и скорости ветра. Ночью, в пасмурную погоду, а также при ветре 12 м/с и более поправка равна нулю.
P - Атмосферное давление - приведенное к уровню моря атмосферное давление.
Po - Атмосферное давление - измеренное на уровне метеостанции атмосферное давление.
Tmin - Минимальная температура - минимум температуры воздуха на высоте 2 м над землей.
Tmax - Максимальная температура - максимум температуры воздуха на высоте 2 м над землей.
R - Количество осадков - Количество выпавших осадков за период времени, мм. При наведении курсора мыши на число - период времени, за который выпало указанное количество осадков.
R24 - Количество осадков - Количество выпавших осадков за 24 часа, мм.
S - Снежный покров - Высота снежного покрова, см. При наведении курсора мыши на число - состояние снежного покрова и степень покрытия местности в баллах.